QPF
0.02 0.01 0.03 0.04 0.03 0.02 0.02 0.03 0.02 0.02 0.01 0.01 0.03 0.06 0.08 0.07 0.03 0.02 0.01 0.01 0.02 0.02 0.01 0.01 0.01 0.00 0.00 0.01 0.01 0.01 0.00 0.01 0.01 0.01 0.01 0.02 0.02 0.02 0.02 0.02 0.01 0.01 0.02 0.02
0.01 0.02 0.02 0.01 0.01 0.01 0.01 0.02 0.01 0.01 0.01 0.01 0.04 0.08 0.10 0.10 0.08 0.05 0.04 0.03 0.03 0.03 0.02 0.01 0.01 0.00 0.01 0.01 0.01 0.01 0.01 0.01 0.01 0.01 0.01 0.02 0.02 0.02 0.03 0.02 0.02 0.01 0.01 0.01
0.01 0.01 0.01 0.01 0.01 0.01 0.01 0.01 0.01 0.01 0.01 0.02 0.03 0.05 0.04 0.06 0.06 0.08 0.09 0.04 0.05 0.05 0.02 0.01 0.01 0.01 0.01 0.01 0.01 0.01 0.02 0.01 0.01 0.02 0.03 0.02 0.03 0.03 0.03 0.03 0.02 0.02 0.02 0.02
0.01 0.01 0.01 0.01 0.01 0.01 0.01 0.01 0.01 0.01 0.02 0.02 0.02 0.04 0.04 0.04 0.06 0.11 0.11 0.05 0.06 0.05 0.03 0.02 0.02 0.02 0.01 0.01 0.02 0.01 0.01 0.03 0.03 0.02 0.02 0.02 0.02 0.02 0.02 0.02 0.02 0.03 0.04 0.04
0.00 0.01 0.01 0.01 0.01 0.01 0.01 0.02 0.01 0.02 0.03 0.03 0.02 0.03 0.04 0.06 0.09 0.10 0.07 0.04 0.05 0.04 0.02 0.03 0.03 0.03 0.03 0.02 0.02 0.01 0.02 0.03 0.03 0.01 0.02 0.02 0.01 0.02 0.01 0.02 0.02 0.03 0.03 0.04
0.00 0.00 0.01 0.01 0.01 0.01 0.01 0.02 0.01 0.02 0.04 0.07 0.06 0.03 0.04 0.05 0.05 0.06 0.05 0.04 0.07 0.06 0.04 0.04 0.04 0.04 0.04 0.02 0.01 0.01 0.01 0.02 0.02 0.02 0.02 0.02 0.02 0.02 0.02 0.02 0.02 0.02 0.02 0.03
0.00 0.00 0.00 0.01 0.01 0.01 0.01 0.02 0.02 0.03 0.05 0.04 0.07 0.07 0.04 0.03 0.03 0.03 0.04 0.05 0.04 0.04 0.04 0.04 0.04 0.04 0.05 0.03 0.02 0.03 0.03 0.03 0.02 0.02 0.02 0.02 0.02 0.02 0.03 0.02 0.02 0.02 0.02 0.03
0.01 0.01 0.01 0.00 0.00 0.01 0.01 0.01 0.02 0.03 0.03 0.02 0.04 0.07 0.05 0.03 0.03 0.03 0.03 0.04 0.05 0.05 0.05 0.05 0.06 0.06 0.05 0.04 0.05 0.04 0.03 0.03 0.03 0.03 0.02 0.02 0.01 0.01 0.01 0.02 0.02 0.03 0.02 0.02
0.00 0.01 0.01 0.00 0.00 0.00 0.00 0.01 0.01 0.02 0.03 0.02 0.03 0.03 0.05 0.05 0.04 0.03 0.03 0.04 0.05 0.04 0.04 0.04 0.06 0.04 0.03 0.03 0.05 0.04 0.03 0.04 0.04 0.03 0.02 0.02 0.02 0.01 0.01 0.02 0.02 0.02 0.02 0.02
0.01 0.00 0.00 0.01 0.01 0.01 0.01 0.01 0.01 0.02 0.02 0.02 0.03 0.03 0.03 0.04 0.05 0.05 0.04 0.05 0.08 0.08 0.04 0.02 0.05 0.03 0.03 0.02 0.01 0.02 0.02 0.03 0.03 0.03 0.02 0.02 0.03 0.02 0.02 0.02 0.02 0.03 0.04 0.04
0.00 0.00 0.00 0.01 0.02 0.01 0.01 0.01 0.01 0.02 0.02 0.02 0.02 0.03 0.03 0.02 0.04 0.04 0.04 0.04 0.05 0.08 0.05 0.06 0.06 0.03 0.04 0.03 0.02 0.02 0.03 0.04 0.03 0.02 0.02 0.02 0.02 0.02 0.02 0.02 0.02 0.03 0.03 0.04
0.00 0.00 0.00 0.00 0.00 0.00 0.01 0.01 0.01 0.02 0.02 0.02 0.02 0.02 0.02 0.02 0.02 0.03 0.04 0.03 0.03 0.03 0.03 0.03 0.04 0.06 0.02 0.02 0.02 0.03 0.05 0.05 0.04 0.03 0.03 0.02 0.02 0.02 0.02 0.02 0.03 0.03 0.03 0.03
0.00 0.00 0.00 0.01 0.00 0.00 0.00 0.01 0.01 0.01 0.01 0.02 0.03 0.04 0.05 0.04 0.02 0.03 0.03 0.02 0.01 0.02 0.02 0.01 0.02 0.02 0.02 0.02 0.02 0.03 0.04 0.04 0.04 0.04 0.04 0.03 0.02 0.02 0.02 0.02 0.03 0.02 0.02 0.02
0.00 0.00 0.00 0.00 0.00 0.00 0.01 0.01 0.01 0.01 0.01 0.01 0.02 0.02 0.03 0.04 0.04 0.04 0.02 0.01 0.01 0.01 0.01 0.01 0.01 0.01 0.01 0.02 0.02 0.02 0.02 0.02 0.02 0.02 0.02 0.02 0.02 0.01 0.01 0.01 0.02 0.03 0.03 0.03
0.00 0.00 0.00 0.00 0.00 0.00 0.00 0.00 0.00 0.00 0.01 0.01 0.01 0.01 0.02 0.04 0.07 0.06 0.02 0.01 0.01 0.01 0.01 0.01 0.01 0.01 0.01 0.01 0.01 0.01 0.01 0.01 0.01 0.01 0.01 0.01 0.01 0.01 0.01 0.01 0.01 0.02 0.03 0.04
0.00 0.00 0.00 0.00 0.00 0.00 0.00 0.01 0.01 0.01 0.01 0.01 0.01 0.02 0.05 0.07 0.05 0.03 0.01 0.01 0.00 0.00 0.01 0.01 0.04 0.02 0.01 0.01 0.01 0.01 0.01 0.01 0.00 0.00 0.00 0.01 0.01 0.01 0.01 0.01 0.02 0.02 0.03 0.03
0.00 0.00 0.00 0.00 0.00 0.00 0.01 0.01 0.01 0.01 0.01 0.01 0.01 0.02 0.07 0.08 0.04 0.02 0.01 0.01 0.01 0.01 0.00 0.01 0.05 0.03 0.01 0.01 0.01 0.00 0.00 0.00 0.00 0.00 0.00 0.01 0.02 0.02 0.02 0.02 0.02 0.02 0.02 0.02
0.00 0.00 0.00 0.00 0.00 0.01 0.01 0.01 0.01 0.01 0.01 0.01 0.02 0.04 0.07 0.05 0.03 0.01 0.01 0.01 0.01 0.01 0.01 0.02 0.06 0.03 0.01 0.01 0.01 0.01 0.01 0.01 0.00 0.00 0.01 0.01 0.02 0.02 0.02 0.02 0.03 0.03 0.02 0.02
0.00 0.00 0.00 0.00 0.01 0.01 0.02 0.03 0.03 0.03 0.02 0.02 0.02 0.04 0.05 0.03 0.02 0.02 0.01 0.01 0.01 0.01 0.02 0.02 0.06 0.03 0.02 0.02 0.03 0.03 0.02 0.01 0.01 0.01 0.01 0.01 0.02 0.02 0.02 0.02 0.03 0.03 0.02 0.01
0.01 0.01 0.01 0.01 0.01 0.01 0.01 0.02 0.02 0.02 0.03 0.02 0.02 0.02 0.03 0.02 0.02 0.03 0.02 0.02 0.03 0.03 0.03 0.04 0.04 0.04 0.03 0.03 0.02 0.02 0.02 0.01 0.01 0.01 0.01 0.01 0.01 0.02 0.01 0.01 0.01 0.01 0.01 0.01
0.01 0.01 0.01 0.01 0.01 0.01 0.01 0.01 0.01 0.02 0.03 0.03 0.03 0.03 0.03 0.03 0.03 0.02 0.02 0.03 0.04 0.05 0.05 0.06 0.06 0.06 0.04 0.03 0.02 0.02 0.01 0.01 0.01 0.00 0.01 0.01 0.02 0.02 0.02 0.02 0.01 0.01 0.00 0.00
0.01 0.01 0.01 0.01 0.03 0.03 0.03 0.01 0.01 0.02 0.02 0.02 0.03 0.03 0.03 0.03 0.03 0.04 0.03 0.03 0.05 0.07 0.11 0.13 0.15 0.14 0.11 0.06 0.04 0.03 0.02 0.01 0.01 0.01 0.01 0.02 0.02 0.02 0.02 0.03 0.02 0.01 0.01 0.01
0.01 0.01 0.01 0.01 0.01 0.02 0.03 0.03 0.03 0.03 0.01 0.01 0.01 0.02 0.03 0.03 0.03 0.02 0.03 0.02 0.03 0.06 0.12 0.16 0.17 0.15 0.11 0.08 0.06 0.04 0.02 0.02 0.01 0.01 0.01 0.02 0.02 0.01 0.02 0.02 0.02 0.02 0.01 0.01
0.01 0.01 0.01 0.01 0.01 0.04 0.05 0.03 0.02 0.01 0.01 0.01 0.01 0.01 0.02 0.02 0.01 0.01 0.01 0.03 0.02 0.02 0.03 0.05 0.10 0.12 0.08 0.09 0.08 0.04 0.02 0.02 0.02 0.01 0.01 0.01 0.02 0.01 0.02 0.02 0.01 0.01 0.01 0.01
0.02 0.01 0.01 0.01 0.00 0.01 0.01 0.01 0.01 0.01 0.01 0.01 0.01 0.01 0.00 0.01 0.00 0.01 0.02 0.07 0.10 0.06 0.04 0.03 0.04 0.04 0.05 0.05 0.05 0.03 0.02 0.01 0.01 0.01 0.01 0.01 0.01 0.01 0.01 0.01 0.01 0.01 0.01 0.01
0.02 0.02 0.02 0.01 0.01 0.01 0.01 0.00 0.00 0.01 0.01 0.00 0.00 0.01 0.01 0.00 0.00 0.01 0.02 0.04 0.09 0.12 0.09 0.06 0.05 0.04 0.03 0.03 0.03 0.02 0.01 0.01 0.02 0.01 0.01 0.01 0.01 0.01 0.01 0.01 0.01 0.01 0.00 0.01
MSLP
1005.19 1006.06 1006.84 1007.57 1008.27 1009.01 1009.82 1010.70 1011.62 1012.53 1013.36 1014.03 1014.51 1014.79 1014.87 1014.81 1014.69 1014.58 1014.52 1014.54 1014.63 1014.77 1014.89 1014.97 1014.97 1014.89 1014.75 1014.60 1014.47 1014.41 1014.45 1014.58 1014.78 1015.01 1015.23 1015.40 1015.48 1015.49 1015.43 1015.34 1015.25 1015.20 1015.21 1015.28
1005.40 1006.03 1006.57 1007.06 1007.61 1008.26 1009.08 1010.07 1011.16 1012.26 1013.26 1014.07 1014.62 1014.89 1014.90 1014.73 1014.48 1014.25 1014.12 1014.11 1014.23 1014.43 1014.64 1014.81 1014.88 1014.84 1014.72 1014.55 1014.40 1014.32 1014.35 1014.50 1014.74 1015.04 1015.32 1015.55 1015.67 1015.68 1015.61 1015.48 1015.35 1015.26 1015.24 1015.31
1005.37 1005.77 1006.07 1006.37 1006.78 1007.39 1008.25 1009.35 1010.61 1011.90 1013.07 1013.99 1014.58 1014.81 1014.73 1014.43 1014.05 1013.70 1013.50 1013.47 1013.63 1013.91 1014.23 1014.51 1014.68 1014.72 1014.63 1014.47 1014.31 1014.22 1014.24 1014.41 1014.68 1015.02 1015.36 1015.64 1015.81 1015.85 1015.77 1015.63 1015.47 1015.36 1015.32 1015.38
1005.17 1005.36 1005.46 1005.61 1005.94 1006.55 1007.49 1008.73 1010.16 1011.61 1012.91 1013.91 1014.50 1014.67 1014.47 1014.01 1013.47 1012.99 1012.70 1012.66 1012.85 1013.22 1013.66 1014.07 1014.36 1014.50 1014.48 1014.35 1014.20 1014.10 1014.12 1014.29 1014.58 1014.95 1015.33 1015.65 1015.86 1015.93 1015.88 1015.74 1015.58 1015.46 1015.42 1015.48
1004.90 1004.91 1004.88 1004.94 1005.24 1005.90 1006.94 1008.33 1009.91 1011.50 1012.89 1013.92 1014.47 1014.54 1014.18 1013.55 1012.83 1012.21 1011.82 1011.74 1011.95 1012.40 1012.96 1013.50 1013.93 1014.18 1014.24 1014.17 1014.05 1013.95 1013.97 1014.12 1014.42 1014.80 1015.21 1015.56 1015.81 1015.92 1015.90 1015.79 1015.64 1015.53 1015.50 1015.56
1004.67 1004.55 1004.42 1004.45 1004.78 1005.52 1006.68 1008.20 1009.91 1011.59 1013.03 1014.04 1014.51 1014.44 1013.91 1013.09 1012.19 1011.41 1010.92 1010.78 1011.01 1011.51 1012.17 1012.84 1013.40 1013.77 1013.93 1013.93 1013.84 1013.76 1013.77 1013.92 1014.20 1014.58 1014.99 1015.37 1015.65 1015.80 1015.82 1015.74 1015.63 1015.54 1015.52 1015.60
1004.55 1004.33 1004.16 1004.20 1004.58 1005.40 1006.67 1008.29 1010.08 1011.81 1013.24 1014.19 1014.55 1014.34 1013.64 1012.64 1011.57 1010.65 1010.06 1009.87 1010.08 1010.63 1011.37 1012.14 1012.81 1013.28 1013.54 1013.62 1013.58 1013.52 1013.53 1013.66 1013.93 1014.30 1014.71 1015.10 1015.40 1015.58 1015.64 1015.61 1015.53 1015.48 1015.48 1015.57
1004.53 1004.26 1004.07 1004.13 1004.58 1005.47 1006.81 1008.48 1010.29 1012.00 1013.37 1014.23 1014.48 1014.13 1013.29 1012.16 1010.97 1009.95 1009.28 1009.04 1009.25 1009.81 1010.60 1011.44 1012.19 1012.76 1013.11 1013.25 1013.27 1013.24 1013.26 1013.38 1013.63 1013.98 1014.38 1014.77 1015.09 1015.31 1015.40 1015.41 1015.38 1015.35 1015.38 1015.49
1004.56 1004.26 1004.08 1004.18 1004.67 1005.60 1006.95 1008.60 1010.35 1011.98 1013.26 1014.01 1014.15 1013.71 1012.79 1011.58 1010.35 1009.29 1008.59 1008.34 1008.54 1009.11 1009.91 1010.79 1011.60 1012.23 1012.64 1012.84 1012.91 1012.92 1012.95 1013.08 1013.32 1013.66 1014.05 1014.44 1014.77 1015.01 1015.14 1015.19 1015.19 1015.20 1015.25 1015.36
1004.53 1004.25 1004.11 1004.24 1004.74 1005.65 1006.94 1008.50 1010.13 1011.61 1012.75 1013.39 1013.45 1012.97 1012.04 1010.86 1009.67 1008.65 1007.99 1007.76 1007.97 1008.54 1009.34 1010.22 1011.04 1011.69 1012.15 1012.40 1012.52 1012.56 1012.63 1012.77 1013.01 1013.35 1013.74 1014.13 1014.47 1014.73 1014.90 1014.98 1015.02 1015.05 1015.11 1015.23
1004.40 1004.17 1004.08 1004.24 1004.72 1005.56 1006.73 1008.11 1009.54 1010.83 1011.81 1012.33 1012.34 1011.87 1011.03 1009.97 1008.91 1008.02 1007.47 1007.30 1007.54 1008.10 1008.88 1009.73 1010.53 1011.18 1011.64 1011.93 1012.09 1012.18 1012.28 1012.46 1012.72 1013.06 1013.45 1013.85 1014.20 1014.48 1014.68 1014.79 1014.86 1014.92 1014.99 1015.11
1004.14 1004.02 1004.01 1004.19 1004.64 1005.36 1006.34 1007.49 1008.66 1009.72 1010.50 1010.91 1010.90 1010.50 1009.79 1008.93 1008.08 1007.40 1007.00 1006.94 1007.22 1007.78 1008.51 1009.30 1010.05 1010.66 1011.12 1011.42 1011.61 1011.75 1011.90 1012.11 1012.40 1012.76 1013.17 1013.58 1013.95 1014.25 1014.48 1014.63 1014.72 1014.80 1014.89 1015.01
1003.86 1003.89 1003.98 1004.19 1004.57 1005.15 1005.90 1006.76 1007.64 1008.42 1008.99 1009.28 1009.26 1008.96 1008.44 1007.82 1007.23 1006.78 1006.57 1006.64 1006.97 1007.51 1008.19 1008.90 1009.56 1010.12 1010.54 1010.85 1011.07 1011.26 1011.46 1011.72 1012.05 1012.44 1012.87 1013.29 1013.68 1014.01 1014.26 1014.44 1014.58 1014.69 1014.79 1014.92
1003.67 1003.88 1004.09 1004.33 1004.65 1005.06 1005.55 1006.10 1006.65 1007.13 1007.48 1007.65 1007.62 1007.41 1007.08 1006.71 1006.39 1006.19 1006.17 1006.35 1006.73 1007.25 1007.85 1008.47 1009.03 1009.52 1009.90 1010.20 1010.45 1010.68 1010.95 1011.26 1011.64 1012.06 1012.51 1012.95 1013.36 1013.70 1013.99 1014.20 1014.38 1014.52 1014.66 1014.80
1003.72 1004.11 1004.44 1004.71 1004.95 1005.18 1005.41 1005.64 1005.85 1006.03 1006.14 1006.17 1006.11 1005.99 1005.83 1005.68 1005.59 1005.61 1005.75 1006.04 1006.43 1006.92 1007.43 1007.95 1008.41 1008.82 1009.16 1009.46 1009.74 1010.02 1010.35 1010.72 1011.14 1011.60 1012.07 1012.52 1012.94 1013.31 1013.62 1013.87 1014.08 1014.27 1014.44 1014.61
1004.10 1004.64 1005.06 1005.34 1005.49 1005.53 1005.50 1005.42 1005.31 1005.19 1005.06 1004.95 1004.84 1004.76 1004.73 1004.75 1004.85 1005.03 1005.30 1005.64 1006.03 1006.46 1006.89 1007.30 1007.68 1008.01 1008.33 1008.63 1008.95 1009.29 1009.68 1010.11 1010.58 1011.06 1011.55 1012.01 1012.44 1012.82 1013.15 1013.43 1013.68 1013.90 1014.12 1014.32
1004.79 1005.43 1005.89 1006.13 1006.17 1006.03 1005.75 1005.38 1004.98 1004.58 1004.24 1003.98 1003.81 1003.74 1003.78 1003.92 1004.14 1004.43 1004.76 1005.12 1005.49 1005.85 1006.19 1006.51 1006.82 1007.11 1007.41 1007.74 1008.11 1008.52 1008.97 1009.46 1009.97 1010.48 1010.97 1011.43 1011.86 1012.24 1012.57 1012.88 1013.16 1013.42 1013.67 1013.90
1005.68 1006.33 1006.75 1006.92 1006.82 1006.50 1006.00 1005.38 1004.73 1004.11 1003.59 1003.20 1002.96 1002.89 1002.96 1003.15 1003.44 1003.77 1004.13 1004.48 1004.81 1005.10 1005.37 1005.62 1005.87 1006.15 1006.47 1006.84 1007.26 1007.74 1008.26 1008.81 1009.35 1009.88 1010.37 1010.82 1011.23 1011.60 1011.93 1012.25 1012.54 1012.83 1013.10 1013.36
1006.57 1007.13 1007.44 1007.47 1007.22 1006.72 1006.03 1005.22 1004.39 1003.61 1002.96 1002.48 1002.20 1002.12 1002.20 1002.42 1002.73 1003.08 1003.43 1003.75 1004.02 1004.26 1004.47 1004.68 1004.91 1005.20 1005.55 1005.98 1006.47 1007.02 1007.61 1008.20 1008.77 1009.31 1009.79 1010.22 1010.60 1010.94 1011.26 1011.57 1011.87 1012.17 1012.46 1012.73
1007.26 1007.63 1007.76 1007.61 1007.20 1006.54 1005.70 1004.77 1003.83 1002.97 1002.27 1001.76 1001.47 1001.39 1001.49 1001.73 1002.05 1002.39 1002.71 1003.00 1003.23 1003.43 1003.61 1003.80 1004.04 1004.35 1004.74 1005.23 1005.79 1006.40 1007.04 1007.66 1008.25 1008.78 1009.24 1009.64 1009.99 1010.30 1010.59 1010.88 1011.17 1011.47 1011.76 1012.03
1007.59 1007.71 1007.60 1007.26 1006.67 1005.89 1004.96 1003.97 1003.01 1002.16 1001.47 1001.00 1000.75 1000.71 1000.85 1001.11 1001.43 1001.77 1002.08 1002.34 1002.55 1002.72 1002.88 1003.08 1003.33 1003.68 1004.12 1004.65 1005.26 1005.91 1006.57 1007.21 1007.79 1008.29 1008.73 1009.09 1009.40 1009.68 1009.94 1010.21 1010.49 1010.77 1011.05 1011.32
1007.51 1007.34 1006.99 1006.45 1005.72 1004.85 1003.89 1002.91 1002.01 1001.23 1000.64 1000.27 1000.11 1000.14 1000.34 1000.64 1000.98 1001.32 1001.62 1001.87 1002.07 1002.24 1002.40 1002.61 1002.88 1003.25 1003.71 1004.27 1004.89 1005.55 1006.20 1006.82 1007.37 1007.85 1008.24 1008.56 1008.84 1009.08 1009.32 1009.57 1009.83 1010.10 1010.37 1010.63
1007.07 1006.63 1006.05 1005.34 1004.51 1003.60 1002.67 1001.78 1000.99 1000.35 999.91 999.67 999.63 999.77 1000.03 1000.38 1000.76 1001.12 1001.43 1001.68 1001.89 1002.06 1002.23 1002.45 1002.73 1003.10 1003.56 1004.10 1004.70 1005.32 1005.93 1006.49 1006.99 1007.41 1007.76 1008.04 1008.28 1008.51 1008.73 1008.96 1009.22 1009.49 1009.76 1010.01
1006.42 1005.76 1005.00 1004.17 1003.29 1002.40 1001.55 1000.78 1000.15 999.69 999.41 999.33 999.42 999.66 1000.01 1000.41 1000.82 1001.20 1001.53 1001.80 1002.01 1002.20 1002.39 1002.60 1002.88 1003.23 1003.65 1004.13 1004.66 1005.20 1005.73 1006.21 1006.63 1006.99 1007.28 1007.53 1007.75 1007.96 1008.18 1008.42 1008.68 1008.95 1009.23 1009.49
1005.73 1004.92 1004.05 1003.17 1002.30 1001.49 1000.75 1000.14 999.68 999.39 999.28 999.34 999.54 999.87 1000.27 1000.71 1001.15 1001.55 1001.89 1002.18 1002.42 1002.62 1002.82 1003.03 1003.28 1003.58 1003.94 1004.33 1004.75 1005.18 1005.59 1005.97 1006.30 1006.58 1006.83 1007.05 1007.26 1007.48 1007.71 1007.97 1008.25 1008.54 1008.82 1009.10
1005.14 1004.26 1003.37 1002.51 1001.71 1001.01 1000.42 999.96 999.67 999.53 999.55 999.70 999.98 1000.35 1000.78 1001.23 1001.67 1002.08 1002.44 1002.74 1003.00 1003.23 1003.43 1003.64 1003.86 1004.11 1004.37 1004.66 1004.96 1005.25 1005.53 1005.79 1006.03 1006.24 1006.45 1006.65 1006.87 1007.10 1007.36 1007.65 1007.96 1008.27 1008.57 1008.86
Thickness
5826 5806 5795 5804 5811 5812 5810 5801 5797 5809 5827 5816 5807 5807 5814 5820 5819 5816 5814 5812 5810 5809 5812 5812 5811 5808 5803 5800 5797 5793 5790 5788 5785 5780 5776 5773 5770 5770 5769 5769 5768 5767 5766 5765
5804 5798 5816 5825 5824 5820 5811 5799 5798 5810 5825 5817 5804 5804 5814 5818 5819 5821 5819 5815 5812 5809 5809 5809 5808 5806 5801 5798 5796 5792 5790 5787 5785 5781 5778 5774 5771 5769 5768 5767 5766 5765 5765 5764
5797 5812 5831 5825 5819 5813 5808 5801 5802 5805 5814 5814 5802 5792 5802 5814 5821 5822 5822 5820 5817 5813 5809 5808 5806 5803 5800 5797 5795 5793 5789 5787 5784 5781 5777 5773 5769 5766 5764 5763 5762 5763 5763 5762
5807 5824 5826 5819 5817 5815 5800 5821 5819 5813 5796 5783 5791 5764 5788 5803 5808 5812 5815 5816 5815 5816 5813 5809 5805 5802 5800 5798 5796 5793 5790 5787 5784 5781 5776 5770 5765 5760 5760 5760 5760 5760 5761 5760
5807 5823 5820 5815 5823 5826 5818 5832 5823 5814 5797 5781 5785 5768 5777 5797 5796 5805 5813 5817 5818 5817 5815 5809 5807 5804 5802 5800 5797 5793 5789 5786 5783 5780 5776 5770 5765 5762 5760 5759 5758 5757 5757 5758
5819 5834 5831 5830 5838 5839 5834 5824 5813 5801 5783 5763 5777 5768 5768 5786 5799 5808 5813 5818 5818 5816 5813 5809 5807 5805 5801 5799 5795 5792 5787 5783 5782 5779 5775 5770 5765 5761 5758 5755 5753 5753 5753 5754
5804 5820 5835 5841 5825 5829 5824 5791 5765 5759 5749 5754 5778 5769 5773 5803 5816 5817 5816 5817 5817 5814 5810 5805 5802 5800 5797 5795 5793 5791 5786 5782 5780 5777 5773 5770 5766 5762 5757 5755 5752 5750 5748 5748
5780 5787 5822 5834 5825 5813 5812 5794 5760 5745 5741 5752 5769 5765 5785 5813 5822 5824 5823 5819 5815 5811 5809 5805 5802 5799 5797 5795 5792 5789 5784 5780 5778 5775 5771 5768 5765 5761 5758 5755 5752 5749 5747 5746
5780 5787 5827 5838 5841 5828 5807 5794 5792 5765 5756 5746 5754 5771 5791 5809 5812 5813 5812 5812 5809 5807 5806 5804 5801 5799 5796 5793 5791 5788 5783 5779 5776 5773 5769 5766 5763 5760 5757 5754 5752 5749 5747 5746
5798 5787 5811 5829 5834 5830 5821 5805 5778 5759 5740 5732 5746 5757 5766 5788 5794 5802 5804 5804 5805 5804 5802 5801 5799 5796 5794 5792 5789 5786 5781 5777 5774 5771 5767 5764 5760 5758 5755 5752 5749 5747 5745 5744
5804 5786 5794 5807 5805 5803 5807 5798 5778 5758 5753 5735 5730 5749 5792 5792 5797 5799 5803 5804 5802 5801 5799 5798 5796 5793 5791 5788 5784 5780 5777 5774 5770 5767 5763 5760 5757 5755 5752 5749 5747 5745 5743 5741
5801 5782 5774 5791 5815 5824 5813 5800 5780 5759 5751 5745 5734 5750 5801 5801 5802 5802 5801 5802 5801 5799 5798 5795 5792 5789 5785 5782 5779 5776 5773 5770 5767 5763 5760 5756 5754 5751 5748 5746 5744 5742 5740 5739
5799 5774 5756 5763 5781 5799 5798 5797 5787 5773 5755 5742 5733 5750 5793 5796 5795 5797 5798 5799 5797 5795 5792 5790 5786 5782 5779 5777 5775 5773 5770 5767 5764 5760 5756 5752 5750 5747 5744 5742 5741 5739 5737 5735
5804 5771 5759 5752 5761 5780 5782 5788 5788 5771 5748 5743 5748 5758 5776 5784 5787 5788 5791 5794 5792 5789 5787 5784 5781 5778 5776 5774 5772 5769 5767 5765 5761 5756 5752 5748 5746 5744 5741 5739 5737 5735 5732 5730
5790 5768 5773 5775 5784 5786 5784 5784 5786 5776 5767 5753 5757 5761 5771 5779 5782 5783 5786 5786 5784 5782 5781 5780 5777 5774 5772 5770 5767 5765 5763 5760 5757 5752 5748 5745 5743 5740 5737 5735 5732 5730 5728 5726
5775 5764 5765 5765 5779 5780 5776 5780 5781 5777 5776 5767 5763 5762 5778 5781 5782 5778 5777 5778 5776 5775 5776 5775 5774 5771 5768 5766 5763 5761 5758 5756 5753 5748 5744 5741 5738 5735 5732 5730 5728 5726 5723 5721
5758 5752 5743 5739 5759 5763 5749 5764 5768 5767 5770 5767 5756 5763 5773 5770 5773 5773 5773 5772 5772 5772 5771 5769 5769 5767 5766 5764 5762 5757 5754 5752 5748 5744 5740 5737 5734 5730 5728 5726 5723 5721 5718 5716
5752 5740 5728 5727 5736 5723 5745 5771 5773 5766 5765 5767 5766 5768 5771 5771 5772 5774 5773 5770 5768 5768 5767 5765 5764 5763 5762 5760 5757 5754 5750 5746 5741 5738 5735 5732 5729 5726 5723 5721 5718 5716 5714 5711
5754 5739 5723 5712 5711 5719 5742 5762 5764 5754 5749 5761 5760 5762 5765 5768 5764 5762 5768 5769 5766 5765 5764 5762 5760 5758 5756 5753 5750 5746 5742 5739 5735 5732 5729 5727 5724 5721 5717 5715 5712 5711 5708 5705
5743 5735 5718 5708 5706 5704 5728 5757 5766 5754 5733 5755 5757 5756 5757 5756 5738 5744 5760 5762 5760 5759 5757 5755 5753 5750 5747 5746 5744 5738 5734 5731 5728 5727 5725 5723 5719 5716 5712 5710 5708 5706 5703 5701
5719 5714 5707 5700 5696 5706 5735 5754 5756 5723 5723 5748 5752 5751 5750 5745 5744 5750 5755 5754 5753 5752 5750 5748 5745 5741 5739 5738 5736 5731 5727 5725 5726 5724 5721 5717 5714 5711 5708 5706 5704 5701 5698 5695
5701 5697 5695 5692 5688 5698 5736 5740 5730 5728 5741 5745 5745 5746 5745 5744 5746 5745 5746 5744 5744 5742 5741 5739 5734 5731 5730 5730 5727 5721 5720 5721 5720 5717 5714 5711 5708 5706 5705 5700 5698 5695 5691 5688
5699 5699 5694 5694 5698 5718 5730 5732 5736 5738 5737 5740 5740 5741 5740 5738 5737 5737 5736 5735 5734 5734 5732 5731 5727 5724 5721 5720 5719 5714 5713 5714 5711 5708 5706 5704 5702 5700 5698 5694 5691 5687 5685 5682
5697 5703 5694 5693 5703 5715 5722 5727 5731 5734 5734 5737 5737 5736 5735 5731 5731 5729 5727 5725 5724 5724 5723 5722 5719 5716 5713 5713 5711 5709 5707 5706 5704 5700 5698 5697 5694 5692 5690 5688 5686 5682 5679 5676
5689 5690 5684 5685 5696 5705 5712 5718 5722 5725 5728 5729 5730 5730 5728 5725 5722 5721 5718 5717 5716 5715 5714 5713 5711 5709 5708 5707 5705 5703 5702 5700 5697 5694 5692 5690 5688 5686 5683 5681 5679 5678 5676 5674
5682 5681 5677 5677 5689 5689 5697 5709 5716 5715 5715 5718 5719 5718 5719 5718 5714 5713 5710 5709 5708 5705 5705 5704 5703 5702 5701 5700 5698 5697 5695 5693 5690 5687 5686 5684 5682 5680 5677 5674 5672 5672 5671 5669